AAY2874 KSFB-KSGF

Flight info

Callsign AAY2874
Flight time 2h 18m
Altitude 30000
Route RDSOX JFRYS PATOY Q116 JAWJA MGM MEM J41 ZAVEL
Aircraft A319/M-SDE3FGHIRWY/LB1

Departure

Time 2026-05-04 23:05
Airport Orlando Sanford International Airport (KSFB)

Arrival

Time 2026-05-05 01:24
Airport Springfield Branson National Airport (KSGF)
Time Latitude Longitude Altitude Speed Heading
2026-05-04 22:19 28.77674 -81.24358 64 ft 0 kts 169°
2026-05-04 22:53 28.77676 -81.24359 56 ft 2 kts 169°
2026-05-04 22:54 28.77701 -81.24363 58 ft 4 kts 180°
2026-05-04 22:54 28.77728 -81.24360 61 ft 4 kts 195°
2026-05-04 22:54 28.77752 -81.24348 62 ft 4 kts 223°
2026-05-04 22:54 28.77763 -81.24327 62 ft 2 kts 268°
2026-05-04 22:55 28.77763 -81.24351 60 ft 4 kts 270°
2026-05-04 22:55 28.77763 -81.24382 59 ft 4 kts 270°
2026-05-04 22:55 28.77763 -81.24411 62 ft 2 kts 270°
2026-05-04 22:55 28.77763 -81.24413 62 ft 0 kts 270°
2026-05-04 22:59 28.77763 -81.24416 64 ft 1 kts 270°
2026-05-04 22:59 28.77763 -81.24425 64 ft 1 kts 270°
2026-05-04 22:59 28.77763 -81.24438 64 ft 2 kts 270°
2026-05-04 22:59 28.77763 -81.24457 64 ft 3 kts 269°
2026-05-04 23:00 28.77763 -81.24480 57 ft 3 kts 269°
2026-05-04 23:00 28.77764 -81.24507 64 ft 3 kts 279°
2026-05-04 23:00 28.77785 -81.24532 60 ft 6 kts 334°
2026-05-04 23:00 28.77843 -81.24535 63 ft 10 kts
2026-05-04 23:01 28.77921 -81.24534 62 ft 11 kts 360°
2026-05-04 23:01 28.77997 -81.24534 58 ft 11 kts 360°
2026-05-04 23:01 28.78064 -81.24560 63 ft 11 kts 294°
2026-05-04 23:01 28.78065 -81.24647 63 ft 11 kts 270°
2026-05-04 23:02 28.78065 -81.24736 63 ft 11 kts 270°
2026-05-04 23:02 28.78064 -81.24825 63 ft 11 kts 270°
2026-05-04 23:02 28.78065 -81.24922 63 ft 14 kts 270°
2026-05-04 23:02 28.78065 -81.25037 63 ft 14 kts 270°
2026-05-04 23:03 28.78064 -81.25150 63 ft 14 kts 269°
2026-05-04 23:03 28.78064 -81.25269 64 ft 16 kts 270°
2026-05-04 23:03 28.78063 -81.25409 57 ft 19 kts 270°
2026-05-04 23:03 28.78068 -81.25561 59 ft 15 kts 289°
2026-05-04 23:04 28.78144 -81.25585 62 ft 10 kts
2026-05-04 23:04 28.78173 -81.25529 64 ft 10 kts 88°
2026-05-04 23:04 28.78173 -81.25337 64 ft 54 kts 90°
2026-05-04 23:04 28.78175 -81.24653 62 ft 116 kts 90°
2026-05-04 23:05 28.78176 -81.23539 105 ft 159 kts 90°
2026-05-04 23:05 28.78207 -81.22326 737 ft 154 kts 84°
2026-05-04 23:05 28.78413 -81.21124 1297 ft 160 kts 75°
2026-05-04 23:05 28.78778 -81.19828 1596 ft 183 kts 72°
2026-05-04 23:06 28.79326 -81.18434 1909 ft 206 kts 59°
2026-05-04 23:06 28.80491 -81.17289 2152 ft 241 kts 27°
2026-05-04 23:06 28.82227 -81.16987 2718 ft 267 kts 357°
2026-05-04 23:06 28.83998 -81.17663 2962 ft 272 kts 329°
2026-05-04 23:07 28.85307 -81.19202 3015 ft 274 kts 301°
2026-05-04 23:07 28.85839 -81.21273 3016 ft 275 kts 272°
2026-05-04 23:07 28.85732 -81.23447 3013 ft 275 kts 263°
2026-05-04 23:07 28.85522 -81.25622 3015 ft 277 kts 262°
2026-05-04 23:08 28.85300 -81.27825 3771 ft 279 kts 263°
2026-05-04 23:08 28.85082 -81.30030 4573 ft 281 kts 262°
2026-05-04 23:08 28.84881 -81.32243 4876 ft 278 kts 263°
2026-05-04 23:08 28.84653 -81.34434 5593 ft 277 kts 257°
2026-05-04 23:09 28.83895 -81.36432 6500 ft 277 kts 237°
2026-05-04 23:09 28.82792 -81.38219 6836 ft 273 kts 233°
2026-05-04 23:09 28.81660 -81.39948 6972 ft 271 kts 233°
2026-05-04 23:09 28.80529 -81.41654 7007 ft 270 kts 233°
2026-05-04 23:10 28.79393 -81.43363 7053 ft 274 kts 233°
2026-05-04 23:10 28.78202 -81.45057 7928 ft 273 kts 231°
2026-05-04 23:10 28.76968 -81.46711 8816 ft 275 kts 231°
2026-05-04 23:10 28.75708 -81.48365 9658 ft 278 kts 230°
2026-05-04 23:11 28.74428 -81.50037 10304 ft 288 kts 231°
2026-05-04 23:11 28.73062 -81.51831 10532 ft 311 kts 231°
2026-05-04 23:11 28.71597 -81.53762 10719 ft 333 kts 231°
2026-05-04 23:11 28.70047 -81.55808 11119 ft 346 kts 231°
2026-05-04 23:12 28.68454 -81.57909 11701 ft 353 kts 231°
2026-05-04 23:12 28.66862 -81.60010 12310 ft 358 kts 230°
2026-05-04 23:12 28.65225 -81.62171 12928 ft 362 kts 230°
2026-05-04 23:12 28.63570 -81.64356 13553 ft 367 kts 230°
2026-05-04 23:13 28.61893 -81.66574 14121 ft 371 kts 231°
2026-05-04 23:13 28.60205 -81.68802 14765 ft 372 kts 231°
2026-05-04 23:13 28.58508 -81.71040 15410 ft 373 kts 231°
2026-05-04 23:13 28.56809 -81.73279 16035 ft 374 kts 231°
2026-05-04 23:14 28.55101 -81.75533 16661 ft 376 kts 231°
2026-05-04 23:14 28.53396 -81.77784 17281 ft 377 kts 232°
2026-05-04 23:14 28.51681 -81.80046 17891 ft 379 kts 232°
2026-05-04 23:14 28.49951 -81.82324 18476 ft 381 kts 232°
2026-05-04 23:15 28.48212 -81.84610 18979 ft 383 kts 232°
2026-05-04 23:15 28.46459 -81.86908 19500 ft 385 kts 232°
2026-05-04 23:15 28.44821 -81.89271 19980 ft 385 kts 240°
2026-05-04 23:15 28.43597 -81.91963 20463 ft 384 kts 251°
2026-05-04 23:16 28.42876 -81.94879 20939 ft 384 kts 261°
2026-05-04 23:16 28.42678 -81.97903 21408 ft 385 kts 271°
2026-05-04 23:16 28.42745 -82.00942 21899 ft 386 kts 272°
2026-05-04 23:16 28.42802 -82.04002 22368 ft 388 kts 271°
2026-05-04 23:17 28.42851 -82.07071 22816 ft 390 kts 271°
2026-05-04 23:17 28.42895 -82.10158 23269 ft 392 kts 271°
2026-05-04 23:17 28.42939 -82.13261 23692 ft 393 kts 271°
2026-05-04 23:17 28.42983 -82.16375 24055 ft 395 kts 271°
2026-05-04 23:18 28.43026 -82.19499 24418 ft 397 kts 271°
2026-05-04 23:18 28.43071 -82.22641 24777 ft 398 kts 271°
2026-05-04 23:18 28.43119 -82.25787 25140 ft 399 kts 271°
2026-05-04 23:18 28.43165 -82.28948 25500 ft 400 kts 271°
2026-05-04 23:19 28.43212 -82.32118 25857 ft 402 kts 271°
2026-05-04 23:19 28.43259 -82.35291 26215 ft 403 kts 271°
2026-05-04 23:19 28.43303 -82.38480 26558 ft 404 kts 271°
2026-05-04 23:19 28.43487 -82.41668 26881 ft 405 kts 279°
2026-05-04 23:20 28.44248 -82.44748 27209 ft 408 kts 291°
2026-05-04 23:20 28.45611 -82.47594 27550 ft 413 kts 302°
2026-05-04 23:20 28.47494 -82.50015 27838 ft 420 kts 314°
2026-05-04 23:20 28.49896 -82.51974 28133 ft 429 kts 324°
2026-05-04 23:21 28.52472 -82.53693 28427 ft 430 kts 324°
2026-05-04 23:21 28.55058 -82.55416 28716 ft 432 kts 324°
2026-05-04 23:21 28.57657 -82.57150 28992 ft 433 kts 324°
2026-05-04 23:21 28.60257 -82.58889 29329 ft 434 kts 324°
2026-05-04 23:22 28.62855 -82.60627 29751 ft 432 kts 324°
2026-05-04 23:22 28.65448 -82.62361 30001 ft 431 kts 324°
2026-05-04 23:22 28.70593 -82.65800 30038 ft 427 kts 324°
2026-05-04 23:23 28.75704 -82.69236 30039 ft 426 kts 324°
2026-05-04 23:23 28.80806 -82.72675 30035 ft 426 kts 324°
2026-05-04 23:24 28.85052 -82.75541 30043 ft 426 kts 324°
2026-05-04 23:24 28.90159 -82.78983 30041 ft 426 kts 324°
2026-05-04 23:25 28.95246 -82.82408 30045 ft 424 kts 324°
2026-05-04 23:25 29.00324 -82.85839 30052 ft 423 kts 324°
2026-05-04 23:26 29.05385 -82.89272 30045 ft 422 kts 324°
2026-05-04 23:26 29.10296 -82.92898 30073 ft 418 kts 320°
2026-05-04 23:27 29.14954 -82.96789 30062 ft 417 kts 318°
2026-05-04 23:27 29.19611 -83.00737 30055 ft 416 kts 319°
2026-05-04 23:28 29.24307 -83.04625 30047 ft 416 kts 319°
2026-05-04 23:28 29.29035 -83.08479 30041 ft 416 kts 320°
2026-05-04 23:29 29.33753 -83.12328 30039 ft 416 kts 319°
2026-05-04 23:29 29.38465 -83.16196 30069 ft 416 kts 319°
2026-05-04 23:30 29.43159 -83.20049 30065 ft 414 kts 319°
2026-05-04 23:30 29.47842 -83.23894 30060 ft 413 kts 319°
2026-05-04 23:31 29.52469 -83.27718 30055 ft 413 kts 319°
2026-05-04 23:31 29.57146 -83.31574 30051 ft 412 kts 319°
2026-05-04 23:32 29.61807 -83.35425 30046 ft 412 kts 319°
2026-05-04 23:32 29.66459 -83.39282 30083 ft 412 kts 318°
2026-05-04 23:33 29.71118 -83.43134 30068 ft 412 kts 319°
2026-05-04 23:33 29.75743 -83.46961 30059 ft 412 kts 319°
2026-05-04 23:34 29.80390 -83.50813 30054 ft 412 kts 318°
2026-05-04 23:34 29.85038 -83.54677 30059 ft 411 kts 319°
2026-05-04 23:35 29.89675 -83.58532 30069 ft 410 kts 319°
2026-05-04 23:35 29.94316 -83.62376 30069 ft 410 kts 319°
2026-05-04 23:36 29.98944 -83.66213 30098 ft 409 kts 318°
2026-05-04 23:36 30.03523 -83.70034 30087 ft 408 kts 318°
2026-05-04 23:37 30.08124 -83.73887 30076 ft 408 kts 318°
2026-05-04 23:37 30.12714 -83.77728 30065 ft 408 kts 318°
2026-05-04 23:38 30.17273 -83.81613 30054 ft 404 kts 314°
2026-05-04 23:38 30.21227 -83.86169 30047 ft 401 kts 309°
2026-05-04 23:39 30.25117 -83.90786 30037 ft 401 kts 309°
2026-05-04 23:39 30.29004 -83.95400 30070 ft 400 kts 309°
2026-05-04 23:40 30.32875 -83.99996 30067 ft 398 kts 309°
2026-05-04 23:40 30.36711 -84.04555 30064 ft 397 kts 309°
2026-05-04 23:41 30.40572 -84.09144 30059 ft 397 kts 309°
2026-05-04 23:41 30.44418 -84.13723 30055 ft 396 kts 309°
2026-05-04 23:42 30.48259 -84.18305 30052 ft 396 kts 309°
2026-05-04 23:42 30.52098 -84.22894 30045 ft 396 kts 309°
2026-05-04 23:43 30.55933 -84.27491 30038 ft 396 kts 309°
2026-05-04 23:43 30.59764 -84.32078 30035 ft 395 kts 310°
2026-05-04 23:44 30.63563 -84.36631 30035 ft 395 kts 310°
2026-05-04 23:44 30.67391 -84.41215 30024 ft 395 kts 310°
2026-05-04 23:45 30.71215 -84.45798 30024 ft 395 kts 309°
2026-05-04 23:45 30.75023 -84.50386 30022 ft 394 kts 309°
2026-05-04 23:46 30.78830 -84.54977 30021 ft 394 kts 309°
2026-05-04 23:46 30.82631 -84.59571 30021 ft 394 kts 309°
2026-05-04 23:47 30.86439 -84.64168 30056 ft 394 kts 309°
2026-05-04 23:47 30.90237 -84.68757 30050 ft 393 kts 310°
2026-05-04 23:48 30.94026 -84.73344 30068 ft 392 kts 310°
2026-05-04 23:48 30.97777 -84.77891 30064 ft 391 kts 309°
2026-05-04 23:49 31.01549 -84.82472 30052 ft 391 kts 309°
2026-05-04 23:49 31.05321 -84.87052 30044 ft 391 kts 310°
2026-05-04 23:50 31.09082 -84.91629 30037 ft 391 kts 309°
2026-05-04 23:50 31.12842 -84.96209 30036 ft 391 kts 309°
2026-05-04 23:51 31.16604 -85.00795 30079 ft 391 kts 309°
2026-05-04 23:51 31.20369 -85.05384 30045 ft 391 kts 310°
2026-05-04 23:52 31.24127 -85.09975 30053 ft 390 kts 310°
2026-05-04 23:52 31.27881 -85.14567 30056 ft 390 kts 310°
2026-05-04 23:53 31.31625 -85.19164 30052 ft 390 kts 310°
2026-05-04 23:53 31.35341 -85.23718 30055 ft 389 kts 310°
2026-05-04 23:54 31.39075 -85.28311 30050 ft 389 kts 310°
2026-05-04 23:54 31.42806 -85.32906 30065 ft 389 kts 310°
2026-05-04 23:55 31.46541 -85.37501 30084 ft 390 kts 310°
2026-05-04 23:56 31.52149 -85.44409 30043 ft 390 kts 310°
2026-05-04 23:56 31.55875 -85.49017 30043 ft 389 kts 310°
2026-05-04 23:57 31.59600 -85.53627 30018 ft 389 kts 310°
2026-05-04 23:57 31.63320 -85.58228 30018 ft 389 kts 310°
2026-05-04 23:58 31.67037 -85.62828 30027 ft 388 kts 310°
2026-05-04 23:58 31.70751 -85.67443 30023 ft 388 kts 310°
2026-05-04 23:59 31.74430 -85.72022 30057 ft 388 kts 310°
2026-05-04 23:59 31.78139 -85.76637 30043 ft 389 kts 310°
2026-05-05 00:00 31.81854 -85.81261 30039 ft 389 kts 310°
2026-05-05 00:00 31.85561 -85.85883 30037 ft 389 kts 310°
2026-05-05 00:01 31.89268 -85.90515 30039 ft 389 kts 310°
2026-05-05 00:01 31.92975 -85.95154 30035 ft 389 kts 310°
2026-05-05 00:02 31.96674 -85.99794 30033 ft 389 kts 310°
2026-05-05 00:02 32.00354 -86.04403 30029 ft 389 kts 310°
2026-05-05 00:03 32.04060 -86.09056 30040 ft 390 kts 310°
2026-05-05 00:03 32.07774 -86.13723 30021 ft 390 kts 310°
2026-05-05 00:04 32.11494 -86.18403 29999 ft 391 kts 310°
2026-05-05 00:04 32.15201 -86.23079 29998 ft 390 kts 310°
2026-05-05 00:05 32.18905 -86.27759 30011 ft 390 kts 310°
2026-05-05 00:05 32.22602 -86.32437 30017 ft 389 kts 310°
2026-05-05 00:06 32.26316 -86.37084 30018 ft 389 kts 310°
2026-05-05 00:06 32.30052 -86.41733 30051 ft 389 kts 310°
2026-05-05 00:07 32.33781 -86.46391 30023 ft 390 kts 310°
2026-05-05 00:07 32.37513 -86.51064 29976 ft 391 kts 310°
2026-05-05 00:08 32.41244 -86.55749 29975 ft 391 kts 310°
2026-05-05 00:08 32.44977 -86.60439 29975 ft 391 kts 310°
2026-05-05 00:09 32.48696 -86.65115 29967 ft 390 kts 310°
2026-05-05 00:09 32.52416 -86.69788 29965 ft 389 kts 310°
2026-05-05 00:10 32.56100 -86.74432 29961 ft 389 kts 310°
2026-05-05 00:10 32.59802 -86.79109 29997 ft 389 kts 310°
2026-05-05 00:11 32.63516 -86.83800 29961 ft 390 kts 310°
2026-05-05 00:11 32.67233 -86.88503 29951 ft 391 kts 310°
2026-05-05 00:12 32.70961 -86.93218 29953 ft 391 kts 310°
2026-05-05 00:12 32.74677 -86.97935 29955 ft 390 kts 311°
2026-05-05 00:13 32.78376 -87.02643 29969 ft 389 kts 311°
2026-05-05 00:13 32.81447 -87.06550 29989 ft 389 kts 311°
2026-05-05 00:14 32.85140 -87.11250 29992 ft 388 kts 311°
2026-05-05 00:14 32.88831 -87.15951 30001 ft 389 kts 311°
2026-05-05 00:15 32.92520 -87.20667 30000 ft 390 kts 311°
2026-05-05 00:15 32.96224 -87.25400 29989 ft 390 kts 311°
2026-05-05 00:16 32.99897 -87.30105 29993 ft 391 kts 311°
2026-05-05 00:16 33.03595 -87.34843 29971 ft 390 kts 311°
2026-05-05 00:17 33.07289 -87.39580 29984 ft 389 kts 311°
2026-05-05 00:17 33.10968 -87.44312 29982 ft 389 kts 311°
2026-05-05 00:18 33.14642 -87.49038 30005 ft 389 kts 311°
2026-05-05 00:18 33.18323 -87.53786 29985 ft 390 kts 311°
2026-05-05 00:19 33.22009 -87.58546 29975 ft 390 kts 311°
2026-05-05 00:19 33.25697 -87.63307 29975 ft 391 kts 311°
2026-05-05 00:20 33.29385 -87.68088 29973 ft 391 kts 311°
2026-05-05 00:20 33.33074 -87.72860 29955 ft 390 kts 311°
2026-05-05 00:21 33.36754 -87.77626 29973 ft 389 kts 311°
2026-05-05 00:21 33.40418 -87.82381 29972 ft 388 kts 311°
2026-05-05 00:22 33.44067 -87.87136 29958 ft 388 kts 311°
2026-05-05 00:22 33.47715 -87.91896 29948 ft 388 kts 311°
2026-05-05 00:23 33.51360 -87.96656 29943 ft 387 kts 311°
2026-05-05 00:23 33.55005 -88.01416 29941 ft 387 kts 311°
2026-05-05 00:24 33.58655 -88.06176 29943 ft 387 kts 311°
2026-05-05 00:24 33.62271 -88.10910 29931 ft 387 kts 311°
2026-05-05 00:25 33.65904 -88.15676 29924 ft 386 kts 311°
2026-05-05 00:25 33.69529 -88.20440 29950 ft 387 kts 311°
2026-05-05 00:26 33.73156 -88.25224 29923 ft 387 kts 311°
2026-05-05 00:26 33.76779 -88.30008 29928 ft 387 kts 311°
2026-05-05 00:27 33.80408 -88.34793 29929 ft 387 kts 311°
2026-05-05 00:27 33.84038 -88.39582 29928 ft 387 kts 311°
2026-05-05 00:28 33.87664 -88.44374 29931 ft 387 kts 311°
2026-05-05 00:28 33.91290 -88.49177 29920 ft 387 kts 310°
2026-05-05 00:29 33.94905 -88.53966 29976 ft 386 kts 311°
2026-05-05 00:29 33.98512 -88.58758 29951 ft 387 kts 311°
2026-05-05 00:30 34.02133 -88.63573 29948 ft 387 kts 311°
2026-05-05 00:30 34.05748 -88.68385 29947 ft 387 kts 311°
2026-05-05 00:31 34.09338 -88.73165 29939 ft 387 kts 311°
2026-05-05 00:31 34.12970 -88.78008 29942 ft 387 kts 311°
2026-05-05 00:32 34.16579 -88.82833 29940 ft 387 kts 311°
2026-05-05 00:32 34.20179 -88.87659 29933 ft 386 kts 310°
2026-05-05 00:33 34.23772 -88.92475 29966 ft 386 kts 310°
2026-05-05 00:33 34.27349 -88.97270 29954 ft 386 kts 310°
2026-05-05 00:34 34.30941 -89.02107 29947 ft 386 kts 310°
2026-05-05 00:34 34.34533 -89.06936 29938 ft 386 kts 310°
2026-05-05 00:35 34.38130 -89.11776 29930 ft 386 kts 310°
2026-05-05 00:35 34.41714 -89.16620 29934 ft 386 kts 310°
2026-05-05 00:36 34.45299 -89.21465 29935 ft 386 kts 310°
2026-05-05 00:36 34.48882 -89.26313 29944 ft 386 kts 310°
2026-05-05 00:37 34.52458 -89.31159 29943 ft 385 kts 310°
2026-05-05 00:37 34.56025 -89.36000 29934 ft 385 kts 310°
2026-05-05 00:38 34.59597 -89.40846 29927 ft 385 kts 310°
2026-05-05 00:38 34.63160 -89.45702 29922 ft 385 kts 310°
2026-05-05 00:39 34.66720 -89.50561 29921 ft 385 kts 310°
2026-05-05 00:39 34.70282 -89.55420 29915 ft 385 kts 310°
2026-05-05 00:40 34.73842 -89.60283 29944 ft 385 kts 310°
2026-05-05 00:40 34.77407 -89.65156 29917 ft 386 kts 310°
2026-05-05 00:41 34.80973 -89.70044 29911 ft 386 kts 310°
2026-05-05 00:41 34.84542 -89.74940 29899 ft 387 kts 310°
2026-05-05 00:42 34.88111 -89.79845 29896 ft 387 kts 310°
2026-05-05 00:42 34.91679 -89.84752 29894 ft 387 kts 310°
2026-05-05 00:43 34.95244 -89.89679 29900 ft 387 kts 310°
2026-05-05 00:43 34.98814 -89.94604 29909 ft 387 kts 310°
2026-05-05 00:44 35.02363 -89.99509 29927 ft 388 kts 310°
2026-05-05 00:44 35.05962 -90.04419 29896 ft 388 kts 310°
2026-05-05 00:45 35.09570 -90.09314 29898 ft 387 kts 310°
2026-05-05 00:45 35.13165 -90.14215 29883 ft 387 kts 310°
2026-05-05 00:46 35.16750 -90.19121 29874 ft 387 kts 310°
2026-05-05 00:46 35.20327 -90.24035 29882 ft 387 kts 310°
2026-05-05 00:47 35.23904 -90.28961 29891 ft 387 kts 310°
2026-05-05 00:47 35.27463 -90.33855 29877 ft 388 kts 310°
2026-05-05 00:48 35.31048 -90.38798 29849 ft 389 kts 310°
2026-05-05 00:48 35.34632 -90.43744 29870 ft 388 kts 309°
2026-05-05 00:49 35.38210 -90.48697 29883 ft 387 kts 309°
2026-05-05 00:49 35.41777 -90.53635 29883 ft 387 kts 309°
2026-05-05 00:50 35.45339 -90.58565 29869 ft 386 kts 309°
2026-05-05 00:50 35.48897 -90.63503 29876 ft 386 kts 309°
2026-05-05 00:51 35.52454 -90.68449 29882 ft 387 kts 309°
2026-05-05 00:51 35.56019 -90.73417 29862 ft 388 kts 309°
2026-05-05 00:52 35.59592 -90.78395 29851 ft 388 kts 309°
2026-05-05 00:52 35.63160 -90.83375 29860 ft 388 kts 309°
2026-05-05 00:53 35.66694 -90.88325 29858 ft 388 kts 309°
2026-05-05 00:53 35.70252 -90.93309 29865 ft 387 kts 309°
2026-05-05 00:54 35.73808 -90.98290 29872 ft 387 kts 309°
2026-05-05 00:54 35.77367 -91.03285 29866 ft 388 kts 309°
2026-05-05 00:55 35.80930 -91.08299 29852 ft 390 kts 309°
2026-05-05 00:55 35.84505 -91.13334 29852 ft 391 kts 309°
2026-05-05 00:56 35.88086 -91.18375 29844 ft 390 kts 309°
2026-05-05 00:56 35.91652 -91.23417 29864 ft 389 kts 309°
2026-05-05 00:57 35.95207 -91.28454 29858 ft 389 kts 309°
2026-05-05 00:57 35.98737 -91.33460 29858 ft 389 kts 309°
2026-05-05 00:58 36.02288 -91.38493 29859 ft 388 kts 309°
2026-05-05 00:58 36.05833 -91.43525 29849 ft 388 kts 309°
2026-05-05 00:59 36.09367 -91.48561 29847 ft 388 kts 308°
2026-05-05 00:59 36.12893 -91.53605 29832 ft 387 kts 308°
2026-05-05 01:00 36.16424 -91.58644 29843 ft 387 kts 308°
2026-05-05 01:00 36.19353 -91.62817 29850 ft 387 kts 308°
2026-05-05 01:01 36.22878 -91.67841 29851 ft 386 kts 308°
2026-05-05 01:01 36.26407 -91.72864 29851 ft 387 kts 309°
2026-05-05 01:02 36.30151 -91.77678 29831 ft 389 kts 312°
2026-05-05 01:02 36.34014 -91.82383 29819 ft 389 kts 312°
2026-05-05 01:03 36.37847 -91.87100 29403 ft 386 kts 311°
2026-05-05 01:03 36.39720 -91.89441 28268 ft 390 kts 311°
2026-05-05 01:03 36.41640 -91.91862 27242 ft 397 kts 311°
2026-05-05 01:03 36.43592 -91.94335 26383 ft 404 kts 311°
2026-05-05 01:04 36.45564 -91.96838 25538 ft 407 kts 311°
2026-05-05 01:04 36.49533 -92.01863 23942 ft 407 kts 311°
2026-05-05 01:04 36.51512 -92.04367 23124 ft 406 kts 311°
2026-05-05 01:05 36.53491 -92.06872 22198 ft 406 kts 311°
2026-05-05 01:05 36.55469 -92.09382 21318 ft 405 kts 311°
2026-05-05 01:05 36.57437 -92.11880 20566 ft 402 kts 312°
2026-05-05 01:05 36.59386 -92.14355 19849 ft 399 kts 312°
2026-05-05 01:06 36.61325 -92.16815 19153 ft 396 kts 312°
2026-05-05 01:06 36.63253 -92.19259 18467 ft 394 kts 312°
2026-05-05 01:06 36.65167 -92.21685 17751 ft 392 kts 312°
2026-05-05 01:06 36.67081 -92.24106 16977 ft 391 kts 313°
2026-05-05 01:07 36.68982 -92.26514 16246 ft 389 kts 313°
2026-05-05 01:07 36.70842 -92.28873 15897 ft 380 kts 313°
2026-05-05 01:07 36.72675 -92.31203 15785 ft 374 kts 312°
2026-05-05 01:07 36.74493 -92.33522 15794 ft 373 kts 312°
2026-05-05 01:08 36.76306 -92.35838 15797 ft 373 kts 312°
2026-05-05 01:08 36.78114 -92.38151 15796 ft 373 kts 312°
2026-05-05 01:08 36.79924 -92.40465 15796 ft 373 kts 312°
2026-05-05 01:08 36.81735 -92.42781 15892 ft 373 kts 312°
2026-05-05 01:09 36.83552 -92.45106 16000 ft 374 kts 312°
2026-05-05 01:09 36.85367 -92.47431 16006 ft 374 kts 312°
2026-05-05 01:09 36.87185 -92.49758 16006 ft 374 kts 312°
2026-05-05 01:09 36.89003 -92.52085 16007 ft 374 kts 312°
2026-05-05 01:10 36.90815 -92.54410 16004 ft 374 kts 312°
2026-05-05 01:10 36.92634 -92.56742 16005 ft 374 kts 312°
2026-05-05 01:10 36.94430 -92.59046 16003 ft 374 kts 312°
2026-05-05 01:10 36.96242 -92.61375 15997 ft 374 kts 312°
2026-05-05 01:11 36.98058 -92.63714 15998 ft 374 kts 312°
2026-05-05 01:11 36.99872 -92.66052 15837 ft 374 kts 312°
2026-05-05 01:11 37.01680 -92.68383 15584 ft 373 kts 312°
2026-05-05 01:11 37.03483 -92.70704 15340 ft 372 kts 312°
2026-05-05 01:12 37.05291 -92.73031 15090 ft 372 kts 312°
2026-05-05 01:12 37.07086 -92.75348 14814 ft 368 kts 312°
2026-05-05 01:12 37.08853 -92.77633 14332 ft 363 kts 312°
2026-05-05 01:12 37.10600 -92.79893 13808 ft 360 kts 312°
2026-05-05 01:13 37.12333 -92.82137 13234 ft 357 kts 311°
2026-05-05 01:13 37.14053 -92.84365 12682 ft 353 kts 311°
2026-05-05 01:13 37.15759 -92.86576 12127 ft 350 kts 311°
2026-05-05 01:13 37.17439 -92.88758 11559 ft 347 kts 311°
2026-05-05 01:14 37.19108 -92.90926 11007 ft 344 kts 311°
2026-05-05 01:14 37.20720 -92.93016 10839 ft 330 kts 311°
2026-05-05 01:14 37.22277 -92.95033 10717 ft 316 kts 311°
2026-05-05 01:14 37.23772 -92.96969 10598 ft 303 kts 311°
2026-05-05 01:15 37.25206 -92.98834 10478 ft 291 kts 310°
2026-05-05 01:15 37.26597 -93.00644 10264 ft 284 kts 310°
2026-05-05 01:15 37.27960 -93.02421 10197 ft 282 kts 310°
2026-05-05 01:15 37.29314 -93.04193 10125 ft 282 kts 310°
2026-05-05 01:16 37.30675 -93.05975 10014 ft 282 kts 310°
2026-05-05 01:16 37.32031 -93.07744 9741 ft 281 kts 310°
2026-05-05 01:16 37.33391 -93.09519 9279 ft 282 kts 310°
2026-05-05 01:16 37.34749 -93.11294 8859 ft 282 kts 310°
2026-05-05 01:17 37.36099 -93.13060 8448 ft 275 kts 309°
2026-05-05 01:17 37.37402 -93.14761 8057 ft 265 kts 309°
2026-05-05 01:17 37.38659 -93.16404 7671 ft 256 kts 308°
2026-05-05 01:17 37.39663 -93.18164 7304 ft 240 kts 291°
2026-05-05 01:18 37.40279 -93.20057 6953 ft 230 kts 287°
2026-05-05 01:18 37.40865 -93.21889 6612 ft 222 kts 287°
2026-05-05 01:18 37.41436 -93.23660 6282 ft 215 kts 287°
2026-05-05 01:18 37.41993 -93.25384 5950 ft 212 kts 286°
2026-05-05 01:19 37.42527 -93.27110 5625 ft 211 kts 281°
2026-05-05 01:19 37.42447 -93.28855 5304 ft 199 kts 240°
2026-05-05 01:19 37.41460 -93.29965 5007 ft 192 kts 205°
2026-05-05 01:19 37.40230 -93.30546 4740 ft 186 kts 204°
2026-05-05 01:20 37.39026 -93.31149 4443 ft 187 kts 204°
2026-05-05 01:20 37.37840 -93.31752 4166 ft 186 kts 204°
2026-05-05 01:20 37.36639 -93.32363 3917 ft 185 kts 204°
2026-05-05 01:20 37.35454 -93.32964 3608 ft 182 kts 203°
2026-05-05 01:21 37.34304 -93.33544 3330 ft 173 kts 204°
2026-05-05 01:21 37.33206 -93.34096 3075 ft 167 kts 203°
2026-05-05 01:21 37.32163 -93.34619 2835 ft 155 kts 203°
2026-05-05 01:21 37.31209 -93.35097 2630 ft 140 kts 203°
2026-05-05 01:22 37.30332 -93.35537 2431 ft 133 kts 204°
2026-05-05 01:22 37.29478 -93.35966 2219 ft 134 kts 204°
2026-05-05 01:22 37.28622 -93.36395 2034 ft 131 kts 203°
2026-05-05 01:22 37.27765 -93.36821 1819 ft 134 kts 202°
2026-05-05 01:23 37.26915 -93.37240 1650 ft 131 kts 202°
2026-05-05 01:23 37.26076 -93.37669 1480 ft 132 kts 202°
2026-05-05 01:23 37.25217 -93.38095 1295 ft 132 kts 201°
2026-05-05 01:23 37.24483 -93.38465 1277 ft 90 kts 202°
2026-05-05 01:24 37.24063 -93.38674 1283 ft 41 kts 202°
2026-05-05 01:24 37.23903 -93.38755 1281 ft 18 kts 202°
2026-05-05 01:24 37.23789 -93.38812 1279 ft 18 kts 201°
2026-05-05 01:24 37.23665 -93.38873 1276 ft 19 kts 202°
2026-05-05 01:25 37.23598 -93.38956 1277 ft 14 kts 271°
2026-05-05 01:25 37.23623 -93.39058 1275 ft 10 kts 293°
2026-05-05 01:25 37.23678 -93.39090 1275 ft 9 kts 15°
2026-05-05 01:25 37.23731 -93.39063 1276 ft 8 kts 22°
2026-05-05 01:26 37.23779 -93.39039 1277 ft 7 kts 21°
2026-05-05 01:26 37.23830 -93.39014 1278 ft 9 kts 22°
2026-05-05 01:26 37.23898 -93.38979 1280 ft 11 kts 22°
2026-05-05 01:26 37.23964 -93.38946 1282 ft 9 kts 21°
2026-05-05 01:27 37.24021 -93.38918 1282 ft 9 kts 21°
2026-05-05 01:27 37.24085 -93.38925 1281 ft 11 kts 346°
2026-05-05 01:27 37.24156 -93.38967 1280 ft 12 kts 322°
2026-05-05 01:27 37.24222 -93.39031 1280 ft 12 kts 322°
2026-05-05 01:28 37.24291 -93.39099 1279 ft 13 kts 321°
2026-05-05 01:28 37.24372 -93.39180 1278 ft 16 kts 321°
2026-05-05 01:28 37.24426 -93.39282 1276 ft 14 kts 247°
2026-05-05 01:28 37.24362 -93.39389 1273 ft 14 kts 232°
2026-05-05 01:29 37.24310 -93.39469 1272 ft 12 kts 225°
2026-05-05 01:29 37.24238 -93.39512 1270 ft 8 kts 201°
2026-05-05 01:29 37.24187 -93.39536 1269 ft 0 kts 201°
2026-05-05 01:29 37.24182 -93.39539 1269 ft 1 kts 201°
2026-05-05 01:30 37.24181 -93.39539 1278 ft 0 kts 201°
2026-05-05 01:30 37.24173 -93.39540 1269 ft 2 kts 184°
2026-05-05 01:30 37.24158 -93.39532 1269 ft 3 kts 152°
2026-05-05 01:30 37.24143 -93.39508 1269 ft 4 kts 118°
2026-05-05 01:31 37.24131 -93.39480 1277 ft 4 kts 116°
2026-05-05 01:31 37.24120 -93.39451 1269 ft 4 kts 117°
2026-05-05 01:31 37.24100 -93.39431 1269 ft 4 kts 161°
2026-05-05 01:31 37.24070 -93.39433 1269 ft 3 kts 192°
2026-05-05 01:32 37.24061 -93.39437 1269 ft 2 kts 201°
2026-05-05 01:32 37.24042 -93.39447 1268 ft 4 kts 206°
2026-05-05 01:32 37.24048 -93.39461 1268 ft 3 kts 311°
2026-05-05 01:32 37.24058 -93.39496 1268 ft 4 kts 265°
2026-05-05 01:33 37.24058 -93.39523 1268 ft 2 kts 273°
2026-05-05 01:33 37.24058 -93.39526 1268 ft 0 kts 274°